Winchester, TN

12:26 PM CDT on March 28, 2017 (GMT -0500)
Winchester Municipal

Weather History for KBGF - February, 2012

Change the Weather History Date:

Saturday, February 11, 2012

  Actual Average (KTHA) Record (KTHA)
Temperature  
Mean Temperature 27 °F -  
Max Temperature 35 °F 52 °F 66 °F (2017)
Min Temperature 19 °F 28 °F 21 °F (2014)
Degree Days  
Heating Degree Days 38    
Moisture  
Dew Point 16 °F    
Average Humidity 66    
Maximum Humidity 100    
Minimum Humidity 43    
Precipitation  
Precipitation 0.00 in - - ()
Sea Level Pressure  
Sea Level Pressure 30.24 in    
Wind  
Wind Speed 10 mph ()    
Max Wind Speed 21 mph    
Max Gust Speed 31 mph    
Visibility 9.7 miles    
Events      
Averages and records for this station are not official NWS values.
T = Trace of Precipitation, MM = Missing Value Source: Averaged Metar Reports

Daily Weather History Graph

Daily Weather History Graph

Search for Another Location

Airport or City:

Trip Planner

Search our weather history database for the weather conditions in past years. The results will help you decide how hot, cold, wet, or windy it might be!

Date:

Astronomy

Feb. 11, 2012 Rise Set
Actual Time 7:35 AM EST 6:22 PM EST
Civil Twilight 7:08 AM EST 6:48 PM EST
Nautical Twilight 6:39 AM EST 7:18 PM EST
Astronomical Twilight 6:09 AM EST 7:48 PM EST
Moon 10:55 PM EST (2/11) 9:29 AM EST (2/11)
Length of Visible Light 11h 39m
Length of Day
10h 47m
Waning Gibbous, 82% of the Moon is Illuminated
Feb 11
Waning Gibbous
Feb 14
Last Quarter
Feb 21
New
Feb 29
First Quarter
Mar 8
Full

Hourly Weather History & Observations

Time (EST) Temp. Windchill Dew Point Humidity Pressure Visibility Wind Dir Wind Speed Gust Speed Precip Events Conditions
12:15 AM 35.6 °F 29.9 °F 33.8 °F 93% 30.03 in 4.0 mi West 6.9 mph - N/A   Overcast
12:35 AM 35.6 °F 30.7 °F 33.8 °F 93% 30.01 in 5.0 mi West 5.8 mph - N/A   Overcast
12:55 AM 35.6 °F 30.7 °F 33.8 °F 93% 30.01 in 6.0 mi West 5.8 mph - N/A   Overcast
1:55 AM 35.6 °F - 33.8 °F 93% 29.99 in 8.0 mi Calm Calm - N/A   Overcast
2:15 AM 35.6 °F 32.8 °F 33.8 °F 93% 29.99 in 10.0 mi WNW 3.5 mph - N/A   Overcast
2:35 AM 35.6 °F 29.9 °F 33.8 °F 93% 30.00 in 10.0 mi WNW 6.9 mph - N/A   Overcast
2:55 AM 35.6 °F 29.9 °F 33.8 °F 93% 30.00 in 10.0 mi Variable 6.9 mph - N/A   Overcast
3:15 AM 35.6 °F 28.0 °F 33.8 °F 93% 30.00 in 10.0 mi NW 10.4 mph - N/A   Overcast
3:35 AM 35.6 °F 28.6 °F 33.8 °F 93% 30.00 in 10.0 mi NW 9.2 mph - N/A   Overcast
3:55 AM 35.6 °F 28.6 °F 33.8 °F 93% 30.00 in 10.0 mi NW 9.2 mph - N/A   Overcast
4:15 AM 30.2 °F 20.2 °F 30.2 °F 100% 30.04 in - NNW 12.7 mph - N/A   Overcast
4:35 AM 30.2 °F 18.9 °F 28.4 °F 93% 30.06 in 10.0 mi North 16.1 mph 23.0 mph N/A   Overcast
4:55 AM 30.2 °F 20.2 °F 26.6 °F 86% 30.07 in 10.0 mi NNW 12.7 mph - N/A   Overcast
5:15 AM 28.4 °F 19.7 °F 26.6 °F 93% 30.08 in 10.0 mi NNW 9.2 mph - N/A   Overcast
5:35 AM 28.4 °F 16.6 °F 26.6 °F 93% 30.10 in 10.0 mi NNW 16.1 mph - N/A   Overcast
5:55 AM 28.4 °F 16.6 °F 23.0 °F 80% 30.11 in 10.0 mi NNW 16.1 mph - N/A   Overcast
6:15 AM 26.6 °F 15.2 °F 23.0 °F 86% 30.14 in 10.0 mi NNW 13.8 mph - N/A   Overcast
6:35 AM 26.6 °F 16.2 °F 21.2 °F 80% 30.15 in 10.0 mi NNW 11.5 mph - N/A   Overcast
6:55 AM 26.6 °F 17.5 °F 21.2 °F 80% 30.15 in 10.0 mi NW 9.2 mph - N/A   Overcast
7:15 AM 26.6 °F 16.2 °F 19.4 °F 74% 30.15 in 10.0 mi NNW 11.5 mph - N/A   Overcast
7:35 AM 26.6 °F 14.3 °F 17.6 °F 69% 30.16 in 10.0 mi NW 16.1 mph - N/A   Overcast
7:55 AM 24.8 °F 14.0 °F 17.6 °F 74% 30.18 in 10.0 mi NNW 11.5 mph - N/A   Overcast
8:15 AM 24.8 °F 12.9 °F 15.8 °F 69% 30.19 in 10.0 mi NNW 13.8 mph - N/A   Overcast
8:35 AM 24.8 °F 11.9 °F 14.0 °F 64% 30.20 in 10.0 mi NNW 16.1 mph - N/A   Overcast
8:55 AM 23.0 °F 12.4 °F 14.0 °F 68% 30.21 in 10.0 mi NNW 10.4 mph - N/A   Overcast
9:15 AM 23.0 °F 11.1 °F 14.0 °F 68% 30.22 in 10.0 mi NNW 12.7 mph - N/A   Overcast
9:35 AM 23.0 °F 10.1 °F 15.8 °F 74% 30.23 in 10.0 mi NNW 15.0 mph - N/A   Overcast
9:55 AM 23.0 °F 13.1 °F 15.8 °F 74% 30.23 in 9.0 mi NNW 9.2 mph - N/A   Overcast
10:15 AM 23.0 °F 10.6 °F 15.8 °F 74% 30.24 in 10.0 mi NNW 13.8 mph - N/A   Overcast
10:35 AM 24.8 °F 11.9 °F 14.0 °F 64% 30.24 in 10.0 mi NNW 16.1 mph - N/A   Overcast
10:55 AM 24.8 °F 11.1 °F 15.8 °F 69% 30.25 in 10.0 mi North 18.4 mph - N/A   Overcast
11:15 AM 24.8 °F 10.7 °F 14.0 °F 64% 30.25 in 10.0 mi NNW 19.6 mph 31.1 mph N/A   Overcast
11:35 AM 24.8 °F 10.3 °F 12.2 °F 59% 30.27 in 10.0 mi North 20.7 mph - N/A   Overcast
11:55 AM 24.8 °F 10.7 °F 12.2 °F 59% 30.27 in 10.0 mi North 19.6 mph - N/A   Mostly Cloudy
12:15 PM 24.8 °F 14.0 °F 12.2 °F 59% 30.28 in 10.0 mi North 11.5 mph - N/A   Overcast
12:35 PM 24.8 °F 12.4 °F 12.2 °F 59% 30.27 in 10.0 mi NNW 15.0 mph - N/A   Overcast
12:55 PM 26.6 °F 14.3 °F 12.2 °F 55% 30.28 in 10.0 mi NNW 16.1 mph - N/A   Overcast
1:15 PM 24.8 °F 11.1 °F 12.2 °F 59% 30.28 in 10.0 mi North 18.4 mph - N/A   Overcast
1:35 PM 24.8 °F 12.9 °F 10.4 °F 54% 30.28 in 10.0 mi NNW 13.8 mph - N/A   Overcast
1:55 PM 24.8 °F 11.1 °F 12.2 °F 59% 30.28 in 10.0 mi NNW 18.4 mph - N/A   Overcast
2:15 PM 24.8 °F 13.4 °F 12.2 °F 59% 30.27 in 10.0 mi NNW 12.7 mph - N/A   Overcast
2:35 PM 26.6 °F 13.4 °F 12.2 °F 55% 30.28 in 10.0 mi North 18.4 mph - N/A   Mostly Cloudy
2:55 PM 28.4 °F 17.0 °F 10.4 °F 47% 30.28 in 10.0 mi NW 15.0 mph - N/A   Scattered Clouds
3:15 PM 26.6 °F 15.2 °F 10.4 °F 51% 30.29 in 10.0 mi North 13.8 mph - N/A   Scattered Clouds
3:35 PM 26.6 °F 13.4 °F 8.6 °F 47% 30.30 in 10.0 mi North 18.4 mph - N/A   Partly Cloudy
3:55 PM 26.6 °F 15.2 °F 8.6 °F 47% 30.30 in 10.0 mi North 13.8 mph - N/A   Clear
4:15 PM 28.4 °F 17.5 °F 8.6 °F 43% 30.30 in 10.0 mi NNW 13.8 mph - N/A   Scattered Clouds
4:35 PM 28.4 °F 16.2 °F 8.6 °F 43% 30.32 in 10.0 mi NNW 17.3 mph 26.5 mph N/A   Scattered Clouds
4:55 PM 26.6 °F 14.7 °F 8.6 °F 47% 30.33 in 10.0 mi North 15.0 mph - N/A   Partly Cloudy
5:15 PM 26.6 °F 15.7 °F 8.6 °F 47% 30.33 in 10.0 mi North 12.7 mph - N/A   Clear
5:35 PM 26.6 °F 15.7 °F 8.6 °F 47% 30.34 in 10.0 mi North 12.7 mph - N/A   Clear
5:55 PM 24.8 °F 12.9 °F 8.6 °F 50% 30.34 in 10.0 mi NNW 13.8 mph - N/A   Clear
6:15 PM 24.8 °F 14.6 °F 8.6 °F 50% 30.35 in 10.0 mi NNW 10.4 mph - N/A   Clear
6:35 PM 24.8 °F 12.9 °F 6.8 °F 46% 30.35 in 10.0 mi NNW 13.8 mph - N/A   Clear
6:55 PM 24.8 °F 14.0 °F 6.8 °F 46% 30.36 in 10.0 mi NNW 11.5 mph - N/A   Clear
7:15 PM 24.8 °F 14.6 °F 5.0 °F 43% 30.37 in 10.0 mi North 10.4 mph - N/A   Clear
7:35 PM 23.0 °F 12.4 °F 5.0 °F 46% 30.38 in 10.0 mi North 10.4 mph - N/A   Clear
7:55 PM 23.0 °F 12.4 °F 5.0 °F 46% 30.38 in 10.0 mi North 10.4 mph - N/A   Clear
8:15 PM 21.2 °F 11.7 °F 6.8 °F 54% 30.38 in 10.0 mi NNW 8.1 mph - N/A   Clear
8:35 PM 21.2 °F 10.9 °F 6.8 °F 54% 30.38 in 10.0 mi North 9.2 mph - N/A   Clear
8:55 PM 21.2 °F 10.9 °F 6.8 °F 54% 30.39 in 10.0 mi North 9.2 mph - N/A   Clear
9:15 PM 21.2 °F 12.6 °F 6.8 °F 54% 30.40 in 10.0 mi North 6.9 mph - N/A   Clear
9:35 PM 21.2 °F 10.1 °F 6.8 °F 54% 30.40 in 10.0 mi NNW 10.4 mph - N/A   Clear
9:55 PM 21.2 °F 9.5 °F 6.8 °F 54% 30.41 in 10.0 mi NNW 11.5 mph - N/A   Clear
10:15 PM 21.2 °F 12.6 °F 6.8 °F 54% 30.42 in 10.0 mi North 6.9 mph - N/A   Clear
10:35 PM 19.4 °F 10.4 °F 8.6 °F 63% 30.42 in 10.0 mi North 6.9 mph - N/A   Clear
10:55 PM 19.4 °F 8.6 °F 8.6 °F 63% 30.42 in 10.0 mi North 9.2 mph - N/A   Clear
11:15 PM 19.4 °F 9.5 °F 8.6 °F 63% 30.42 in 10.0 mi North 8.1 mph - N/A   Clear
11:35 PM 19.4 °F 7.9 °F 8.6 °F 63% 30.43 in 10.0 mi North 10.4 mph - N/A   Clear
11:55 PM 19.4 °F 7.9 °F 8.6 °F 63% 30.43 in 10.0 mi North 10.4 mph - N/A   Clear